DW3589 Arcos (Cadiz) ES current weather conditions

sailwx.info

Wind from 236

Air temperature 23.9° C
Dewpoint 17.1° C

Last reported at 2018-Apr-23 14:00 UTC.
Time now 2018-Apr-23 15:01 UTC

Location: N 36°46' W 005°47'.
View on Google Maps.

See reports from other nearby stations

  
Tides and Currents Weather Stations Pressure Air Temp Water Temp Dewpoint Dewpoint Depression Visibility Wind Speed Wind Dir Waves Ship Positions
date/time (UTC)wind fromknots sea level pressurealtimeterstation pressurevisibilityair tempwater tempwave heightnotes
2018-Apr-23 14:00 236 23.9
2018-Apr-23 13:30 252 23.9
2018-Apr-23 13:00 232 23.3
2018-Apr-23 12:30 250 4 gusting 6 22.8
2018-Apr-23 12:00 156 23.3
2018-Apr-23 11:30 229 1 gusting 5 22.2
2018-Apr-23 11:00 222 3 gusting 5 21.7
2018-Apr-23 10:30 174 0 gusting 2 22.2
2018-Apr-23 10:00 132 21.7
2018-Apr-23 09:30 204 20.6
2018-Apr-23 09:00 274 20.0
2018-Apr-23 08:30 068 0 gusting 11 18.9
2018-Apr-23 08:00 026 4 gusting 13 18.9
2018-Apr-23 07:30 027 5 gusting 10 18.3
2018-Apr-23 07:00 019 6 gusting 13 17.8
2018-Apr-23 06:30 067 4 gusting 11 17.2
2018-Apr-23 06:00 028 7 gusting 14 17.2
2018-Apr-23 05:30 036 9 gusting 17 17.2
2018-Apr-23 05:00 067 6 gusting 19 17.2
2018-Apr-23 04:30 036 4 gusting 19 17.8
2018-Apr-23 04:00 058 18 gusting 20 17.8
2018-Apr-23 03:30 060 7 gusting 19 17.8
2018-Apr-23 03:00 050 1 gusting 7 16.7
2018-Apr-23 02:30 055 16.1
2018-Apr-23 02:00 026 16.1
2018-Apr-23 01:30 354 16.1
2018-Apr-23 01:00 010 16.1
2018-Apr-23 00:30 026 16.1
2018-Apr-23 00:00 198 16.7
2018-Apr-22 23:30 233 16.7
2018-Apr-22 23:00 030 2 gusting 3 16.7
2018-Apr-22 22:30 232 17.2
2018-Apr-22 22:00 100 17.8
2018-Apr-22 21:30 131 0 gusting 0 17.2
2018-Apr-22 21:00 220 17.8
2018-Apr-22 20:30 212 17.8
2018-Apr-22 20:00 207 18.3
2018-Apr-22 19:30 267 18.3
2018-Apr-22 19:00 246 18.9
2018-Apr-22 18:30 264 18.9
2018-Apr-22 18:00 276 0 gusting 6 19.4
2018-Apr-22 17:30 267 20.0
2018-Apr-22 17:00 004 4 gusting 9 20.6
2018-Apr-22 16:30 326 1 gusting 8 21.7
2018-Apr-22 16:00 326 2 gusting 4 22.8
2018-Apr-22 15:30 322 0 gusting 5 22.8
2018-Apr-22 15:00 278 22.8
2018-Apr-22 14:30 354 22.2
2018-Apr-22 14:00 312 22.2
2018-Apr-22 13:30 330 0 gusting 5 22.2
2018-Apr-22 13:00 037 22.2
2018-Apr-22 12:30 325 21.1
2018-Apr-22 12:00 298 20.6
2018-Apr-22 11:30 011 1 gusting 6 20.6
2018-Apr-22 11:00 030 20.0
2018-Apr-22 10:30 326 19.4
2018-Apr-22 10:00 329 18.9
2018-Apr-22 09:30 225 18.3
2018-Apr-22 09:00 285 18.3
2018-Apr-22 08:30 248 17.8
2018-Apr-22 08:00 004 17.2
2018-Apr-22 07:30 041 15.6
2018-Apr-22 07:00 307 15.0
2018-Apr-22 06:30 054 13.9
2018-Apr-22 06:00 224 14.4
2018-Apr-22 05:30 224 13.9
2018-Apr-22 05:00 106 14.4
2018-Apr-22 04:30 108 15.0
2018-Apr-22 04:00 108 15.0
2018-Apr-22 03:30 270 15.0
2018-Apr-22 03:00 124 15.6
2018-Apr-22 02:30 105 15.6
2018-Apr-22 02:00 198 15.0
2018-Apr-22 01:30 208 0 gusting 1 15.6
2018-Apr-22 01:00 205 15.6
2018-Apr-22 00:30 099 15.6
2018-Apr-22 00:00 152 15.6
2018-Apr-21 23:30 122 15.6
2018-Apr-21 23:00 122 15.6
2018-Apr-21 22:30 229 2 gusting 1 16.1
2018-Apr-21 22:00 129 16.1
2018-Apr-21 21:30 255 16.1
2018-Apr-21 21:00 061 16.1
2018-Apr-21 20:30 044 16.7
2018-Apr-21 20:00 226 16.7
2018-Apr-21 19:30 160 17.2
2018-Apr-21 19:00 132 4 gusting 4 17.2
2018-Apr-21 18:30 174 18.3
2018-Apr-21 18:00 208 12 gusting 15 19.4
2018-Apr-21 17:30 203 5 gusting 10 19.4
2018-Apr-21 17:00 232 1 gusting 8 20.0
2018-Apr-21 16:30 316 21.7
2018-Apr-21 16:00 009 21.7
2018-Apr-21 15:30 016 6 gusting 8 21.7
2018-Apr-21 15:00 059 2 gusting 10 21.1